Quemado, NM

6:16 AM MST on February 25, 2017 (GMT -0700)
Lordsburg

Weather History for KLSB - July, 2012

Change the Weather History Date:

Thursday, July 26, 2012

  Actual Average Record
Temperature  
Mean Temperature 84 °F -  
Max Temperature 98 °F 95 °F 98 °F (2014)
Min Temperature 71 °F 63 °F 68 °F (2013)
Cooling Degree Days 20    
Growing Degree Days 34 (Base 50)    
Moisture  
Dew Point 55 °F    
Average Humidity 41    
Maximum Humidity 65    
Minimum Humidity 19    
Precipitation  
Precipitation 0.00 in - - ()
Sea Level Pressure  
Sea Level Pressure 30.03 in    
Wind  
Wind Speed 9 mph ()    
Max Wind Speed 24 mph    
Max Gust Speed 28 mph    
Visibility 10.0 miles    
Events Rain , Thunderstorm    
Averages and records for this station are not official NWS values.
T = Trace of Precipitation, MM = Missing Value Source: Averaged Metar Reports

Daily Weather History Graph

Daily Weather History Graph

Search for Another Location

Airport or City:

Trip Planner

Search our weather history database for the weather conditions in past years. The results will help you decide how hot, cold, wet, or windy it might be!

Date:

Astronomy

Jul. 26, 2012 Rise Set
Actual Time 6:21 AM MDT 8:20 PM MDT
Civil Twilight 5:53 AM MDT 8:48 PM MDT
Nautical Twilight 5:19 AM MDT 9:22 PM MDT
Astronomical Twilight 4:43 AM MDT 9:58 PM MDT
Moon 2:13 PM MDT (7/26) 12:12 AM MDT (7/26)
Length of Visible Light 14h 54m
Length of Day
13h 58m
First Quarter, 54% of the Moon is Illuminated
Jul 26
First Quarter
Aug 1
Full
Aug 9
Last Quarter
Aug 17
New
Aug 24
First Quarter

Hourly Weather History & Observations

Time (MDT) Temp. Heat Index Dew Point Humidity Pressure Visibility Wind Dir Wind Speed Gust Speed Precip Events Conditions
12:15 AM 77.0 °F - 59.0 °F 54% 30.03 in 10.0 mi West 5.8 mph - N/A   Clear
12:35 AM 78.8 °F - 53.6 °F 42% 30.03 in 10.0 mi West 10.4 mph - N/A   Scattered Clouds
12:55 AM 80.6 °F 80.3 °F 53.6 °F 39% 30.03 in 10.0 mi West 10.4 mph - N/A   Clear
1:15 AM 78.8 °F - 53.6 °F 42% 30.03 in 10.0 mi WNW 8.1 mph - N/A   Scattered Clouds
1:35 AM 78.8 °F - 53.6 °F 42% 30.02 in 10.0 mi WNW 10.4 mph - N/A   Scattered Clouds
1:55 AM 78.8 °F - 53.6 °F 42% 30.03 in 10.0 mi WNW 8.1 mph - N/A   Clear
2:15 AM 78.8 °F - 53.6 °F 42% 30.02 in 10.0 mi WNW 10.4 mph - N/A   Clear
2:35 AM 78.8 °F - 53.6 °F 42% 30.02 in 10.0 mi WNW 6.9 mph - N/A   Scattered Clouds
2:55 AM 78.8 °F - 53.6 °F 42% 30.02 in 10.0 mi WNW 6.9 mph - N/A   Overcast
3:15 AM 78.8 °F - 53.6 °F 42% 30.02 in 10.0 mi NW 6.9 mph - N/A   Overcast
3:35 AM 77.0 °F - 55.4 °F 47% 30.02 in 10.0 mi WNW 8.1 mph - N/A   Overcast
3:55 AM 77.0 °F - 55.4 °F 47% 30.01 in 10.0 mi WNW 8.1 mph - N/A   Scattered Clouds
4:15 AM 77.0 °F - 55.4 °F 47% 30.02 in 10.0 mi WNW 6.9 mph - N/A   Clear
4:35 AM 73.4 °F - 55.4 °F 53% 30.02 in 10.0 mi NW 5.8 mph - N/A   Clear
4:55 AM 73.4 °F - 55.4 °F 53% 30.02 in 10.0 mi NW 5.8 mph - N/A   Clear
5:15 AM 71.6 °F - 57.2 °F 60% 30.02 in 10.0 mi NW 5.8 mph - N/A   Clear
5:35 AM 73.4 °F - 57.2 °F 57% 30.03 in 10.0 mi NNW 4.6 mph - N/A   Clear
5:55 AM 71.6 °F - 59.0 °F 64% 30.03 in 10.0 mi WNW 4.6 mph - N/A   Clear
6:15 AM 71.6 °F - 59.0 °F 64% 30.03 in 10.0 mi NW 4.6 mph - N/A   Clear
6:55 AM 73.4 °F - 57.2 °F 57% 30.04 in 10.0 mi NW 5.8 mph - N/A   Clear
7:15 AM 75.2 °F - 55.4 °F 50% 30.04 in 10.0 mi NNW 3.5 mph - N/A   Clear
7:35 AM 77.0 °F - 57.2 °F 50% 30.06 in 10.0 mi NNW 3.5 mph - N/A   Clear
7:55 AM 77.0 °F - 55.4 °F 47% 30.06 in 10.0 mi NW 5.8 mph - N/A   Clear
8:15 AM 78.8 °F - 55.4 °F 44% 30.07 in 10.0 mi NW 6.9 mph - N/A   Clear
8:35 AM 80.6 °F 80.3 °F 53.6 °F 39% 30.07 in 10.0 mi NW 10.4 mph - N/A   Clear
8:55 AM 80.6 °F 80.3 °F 53.6 °F 39% 30.08 in 10.0 mi NW 8.1 mph - N/A   Clear
9:15 AM 82.4 °F 81.4 °F 53.6 °F 37% 30.08 in 10.0 mi WNW 11.5 mph - N/A   Clear
9:35 AM 84.2 °F - 51.8 °F 33% 30.08 in 10.0 mi WNW 15.0 mph - N/A   Clear
9:55 AM 86.0 °F - 51.8 °F 31% 30.08 in 10.0 mi WNW 13.8 mph 19.6 mph N/A   Clear
10:15 AM 86.0 °F - 51.8 °F 31% 30.08 in 10.0 mi WNW 13.8 mph 17.3 mph N/A   Clear
10:35 AM 86.0 °F - 51.8 °F 31% 30.08 in 10.0 mi WNW 16.1 mph 19.6 mph N/A   Clear
10:55 AM 87.8 °F - 51.8 °F 29% 30.08 in 10.0 mi WNW 12.7 mph 18.4 mph N/A   Clear
11:15 AM 89.6 °F - 51.8 °F 27% 30.08 in 10.0 mi West 12.7 mph 19.6 mph N/A   Clear
11:35 AM 91.4 °F - 51.8 °F 26% 30.07 in 10.0 mi West 17.3 mph - N/A   Clear
11:55 AM 91.4 °F - 51.8 °F 26% 30.06 in 10.0 mi WNW 12.7 mph 19.6 mph N/A   Clear
12:15 PM 91.4 °F - 50.0 °F 24% 30.06 in 10.0 mi West 10.4 mph 20.7 mph N/A   Clear
12:35 PM 93.2 °F - 50.0 °F 23% 30.06 in 10.0 mi WNW 11.5 mph 17.3 mph N/A   Clear
12:55 PM 91.4 °F - 50.0 °F 24% 30.06 in 10.0 mi NNW 12.7 mph - N/A   Clear
1:15 PM 91.4 °F - 50.0 °F 24% 30.06 in 10.0 mi NW 5.8 mph 17.3 mph N/A   Clear
1:35 PM 93.2 °F - 50.0 °F 23% 30.05 in 10.0 mi NNE 8.1 mph - N/A   Clear
1:55 PM 93.2 °F - 50.0 °F 23% 30.04 in 10.0 mi North 3.5 mph 18.4 mph N/A   Clear
2:15 PM 91.4 °F - 50.0 °F 24% 30.03 in 10.0 mi West 10.4 mph - N/A   Clear
2:35 PM 93.2 °F - 50.0 °F 23% 30.02 in 10.0 mi NW 10.4 mph - N/A   Clear
2:55 PM 93.2 °F - 50.0 °F 23% 30.01 in 10.0 mi Calm Calm - N/A   Clear
3:15 PM 93.2 °F - 50.0 °F 23% 30.01 in 10.0 mi West 8.1 mph - N/A   Clear
3:35 PM 93.2 °F - 50.0 °F 23% 29.99 in 10.0 mi West 15.0 mph - N/A   Clear
3:55 PM 96.8 °F - 50.0 °F 20% 29.99 in 10.0 mi WSW 16.1 mph 20.7 mph N/A   Clear
4:15 PM 96.8 °F - 50.0 °F 20% 29.98 in 10.0 mi WSW 13.8 mph 23.0 mph N/A   Clear
4:35 PM 96.8 °F - 50.0 °F 20% 29.97 in 10.0 mi West 16.1 mph 21.9 mph N/A   Clear
4:55 PM 96.8 °F - 50.0 °F 20% 29.97 in 10.0 mi WSW 15.0 mph 21.9 mph N/A   Clear
5:15 PM 96.8 °F - 50.0 °F 20% 29.96 in 10.0 mi North - - N/A   Clear
5:35 PM 98.6 °F - 50.0 °F 19% 29.96 in 10.0 mi West 10.4 mph 19.6 mph N/A Thunderstorm Scattered Clouds
5:55 PM 87.8 °F 86.1 °F 55.4 °F 33% 29.99 in 10.0 mi East 18.4 mph - N/A   Mostly Cloudy
6:15 PM 84.2 °F 83.0 °F 55.4 °F 37% 29.99 in 10.0 mi North - - N/A   Overcast
6:35 PM 82.4 °F 81.7 °F 55.4 °F 39% 30.02 in 10.0 mi North 17.3 mph 26.5 mph N/A   Overcast
6:55 PM 82.4 °F 81.7 °F 55.4 °F 39% 30.03 in 10.0 mi North 19.6 mph 25.3 mph N/A Rain , Thunderstorm Light Thunderstorms and Rain
7:15 PM 78.8 °F - 59.0 °F 51% 30.02 in 10.0 mi NNW 24.2 mph 27.6 mph N/A Rain Light Rain
7:35 PM 77.0 °F - 59.0 °F 54% 30.02 in 10.0 mi NW 12.7 mph 21.9 mph N/A Rain , Thunderstorm Light Thunderstorms and Rain
7:55 PM 78.8 °F - 57.2 °F 47% 30.02 in 10.0 mi NNW 9.2 mph - N/A   Scattered Clouds
8:15 PM 78.8 °F - 55.4 °F 44% 30.02 in 10.0 mi NW 11.5 mph - N/A Thunderstorm Clear
8:35 PM 77.0 °F - 60.8 °F 57% 30.02 in 10.0 mi NW 6.9 mph - N/A   Clear
8:55 PM 77.0 °F - 60.8 °F 57% 30.01 in 10.0 mi West 5.8 mph - N/A   Clear
9:15 PM 77.0 °F - 60.8 °F 57% 30.02 in 10.0 mi WNW 8.1 mph - N/A   Clear
9:35 PM 77.0 °F - 60.8 °F 57% 30.02 in 10.0 mi WNW 9.2 mph - N/A   Clear
9:55 PM 75.2 °F - 60.8 °F 61% 30.03 in 10.0 mi West 11.5 mph - N/A   Clear
10:15 PM 75.2 °F - 60.8 °F 61% 30.03 in 10.0 mi WNW 10.4 mph - N/A   Clear
10:35 PM 77.0 °F - 60.8 °F 57% 30.04 in 10.0 mi WNW 10.4 mph - N/A   Clear
10:55 PM 77.0 °F - 59.0 °F 54% 30.06 in 10.0 mi WNW 5.8 mph - N/A   Clear
11:15 PM 75.2 °F - 59.0 °F 57% 30.06 in 10.0 mi WNW 8.1 mph - N/A   Clear
11:35 PM 75.2 °F - 59.0 °F 57% 30.06 in 10.0 mi NW 4.6 mph - N/A   Clear
11:55 PM 73.4 °F - 60.8 °F 65% 30.06 in 10.0 mi WNW 6.9 mph - N/A   Clear